Location: Newark
(31.5350°N, 35.0986°E)
Time: 00:34:58
(UTC+00:00)

Vanguard 1 - Pass Details

Date: 29 September 2019
Orbit: 653 x 3830 km, 34.2° (Epoch: 22 October)

Event Time Altitude Azimuth Distance (km) Brightness Sun altitude
Rises 00:50:58 0° 277° (W) 7,711 - -34.4°
Reaches altitude 10° 00:56:00 10° 278° (W) 6,843 - -33.4°
Exits shadow 01:06:08 34° 282° (WNW) 5,134 13.2 -31.4°
Maximum altitude 01:20:10 85° 10° (N) 3,499 12.6 -28.6°
Drops below altitude 10° 01:37:19 10° 100° (E) 5,153 14.6 -25.0°
Sets 01:40:30 0° 101° (E) 5,825 15.1 -24.4°
